This is the latest recevied weather packets stored in our database for station/object VA3XLT-1. If no packets are shown the sender has not sent any weather packets the latest 10 day(s).
| Time | Temp. | Humidity | Pressure | Rain* | Wind** | Luminosity | Snow |
|---|---|---|---|---|---|---|---|
| 1777832863 | 18.89° C | 38% | 1011.1 hPa | 0 mm | - | - | - |
| 1777832563 | 18.89° C | 42% | 1011.1 hPa | 0 mm | - | - | - |
| 1777832263 | 17.78° C | 43% | 1011.2 hPa | 0 mm | - | - | - |
| 1777831963 | 17.78° C | 41% | 1011.1 hPa | 0 mm | - | - | - |
| 1777831663 | 17.78° C | 41% | 1011.2 hPa | 0 mm | - | - | - |
| 1777831363 | 17.78° C | 45% | 1011.3 hPa | 0 mm | - | - | - |
| 1777831063 | 17.22° C | 42% | 1011.3 hPa | 0 mm | - | - | - |
| 1777830763 | 17.22° C | 47% | 1011.4 hPa | 0 mm | - | - | - |
| 1777830463 | 16.67° C | 47% | 1011.5 hPa | 0 mm | - | - | - |
| 1777830163 | 16.11° C | 46% | 1011.6 hPa | 0 mm | - | - | - |
| 1777829863 | 16.11° C | 46% | 1011.6 hPa | 0 mm | - | - | - |
| 1777829563 | 16.67° C | 44% | 1011.6 hPa | 0 mm | - | - | - |
| 1777829263 | 16.67° C | 43% | 1011.7 hPa | 0 mm | - | - | - |
| 1777828963 | 17.22° C | 43% | 1011.7 hPa | 0 mm | - | - | - |
| 1777828663 | 17.78° C | 42% | 1011.8 hPa | 0 mm | - | - | - |
| 1777828363 | 17.22° C | 41% | 1011.8 hPa | 0 mm | - | - | - |
| 1777828063 | 17.22° C | 43% | 1011.9 hPa | 0 mm | - | - | - |
| 1777827763 | 17.78° C | 41% | 1011.9 hPa | 0 mm | - | - | - |
| 1777827463 | 17.78° C | 41% | 1012 hPa | 0 mm | - | - | - |
| 1777827163 | 18.33° C | 41% | 1012.1 hPa | 0 mm | - | - | - |
| 1777826863 | 18.33° C | 41% | 1012.1 hPa | 0 mm | - | - | - |
| 1777826563 | 18.33° C | 39% | 1012.1 hPa | 0 mm | - | - | - |
| 1777826263 | 18.89° C | 41% | 1012.2 hPa | 0 mm | - | - | - |
| 1777825963 | 18.89° C | 38% | 1012.2 hPa | 0 mm | - | - | - |
| 1777825663 | 19.44° C | 38% | 1012.2 hPa | 0 mm | - | - | - |
* Rain latest hour (hover to see other rain measurements)
** Current wind speed in m/s (hover to see current wind gust speed)